| time (UTC) | temp C | wind direction | speed KPH | gust KPH | rain 1hr cm | rain 24hr cm | rain mn cm | humidity % | barometer mb |
| 20260507073037 | 19 | 232 | 1.6 | 4.8 | 0.00 | 0.00 | 0.00 | 48 | 1011.9 |
| 20260507071548 | 19 | 248 | 1.6 | 6.4 | 0.00 | 0.00 | 0.00 | 47 | 1011.9 |
| 20260507070057 | 19 | 189 | 4.8 | 6.4 | 0.00 | 0.00 | 0.00 | 45 | 1011.7 |
| 20260507064546 | 19 | 227 | 1.6 | 4.8 | 0.00 | 0.00 | 0.00 | 46 | 1011.7 |
| 20260507063052 | 18 | 248 | 1.6 | 6.4 | 0.00 | 0.00 | 0.00 | 47 | 1011.7 |
| 20260507061541 | 19 | 258 | 4.8 | 6.4 | 0.00 | 0.00 | 0.00 | 47 | 1011.6 |
| 20260507060040 | 18 | 259 | 1.6 | 4.8 | 0.00 | 0.00 | 0.00 | 47 | 1011.8 |
| 20260507054540 | 19 | 261 | 0.0 | 3.2 | 0.00 | 0.00 | 0.00 | 46 | 1011.7 |
| 20260507053038 | 19 | 232 | 1.6 | 3.2 | 0.00 | 0.00 | 0.00 | 47 | 1011.9 |
| 20260507051536 | 20 | 314 | 1.6 | 3.2 | 0.00 | 0.00 | 0.00 | 46 | 1011.8 |
| 20260507044551 | 20 | 224 | 1.6 | 6.4 | 0.00 | 0.00 | 0.00 | 42 | 1011.8 |
| 20260507043036 | 21 | 329 | 1.6 | 6.4 | 0.00 | 0.00 | 0.00 | 41 | 1011.8 |
| 20260507041536 | 21 | 263 | 3.2 | 9.7 | 0.00 | 0.00 | 0.00 | 42 | 1011.7 |
| 20260507040048 | 22 | 0 | 0.0 | 3.2 | 0.00 | 0.00 | 0.00 | 40 | 1011.6 |
| 20260507034544 | 22 | 184 | 3.2 | 6.4 | 0.00 | 0.00 | 0.00 | 41 | 1011.4 |
| 20260507033042 | 23 | 191 | 3.2 | 4.8 | 0.00 | 0.00 | 0.00 | 37 | 1011.2 |
| 20260507031544 | 24 | 204 | 0.0 | 3.2 | 0.00 | 0.00 | 0.00 | 36 | 1011.2 |
| 20260507030038 | 25 | 204 | 1.6 | 4.8 | 0.00 | 0.00 | 0.00 | 36 | 1010.9 |
| 20260507024546 | 26 | 187 | 1.6 | 6.4 | 0.00 | 0.00 | 0.00 | 37 | 1010.8 |
| 20260507023038 | 27 | 205 | 1.6 | 3.2 | 0.00 | 0.00 | 0.00 | 34 | 1010.7 |
| 20260507021553 | 27 | 206 | 1.6 | 4.8 | 0.00 | 0.00 | 0.00 | 32 | 1010.3 |
| 20260507020045 | 27 | 128 | 0.0 | 11.3 | 0.00 | 0.00 | 0.00 | 31 | 1010.4 |
| 20260507014539 | 27 | 100 | 6.4 | 14.5 | 0.00 | 0.00 | 0.00 | 29 | 1010.3 |
| 20260507013041 | 28 | 134 | 9.7 | 17.7 | 0.00 | 0.00 | 0.00 | 30 | 1010.3 |
| 20260507011538 | 28 | 121 | 11.3 | 16.1 | 0.00 | 0.00 | 0.00 | 29 | 1010.2 |
| 20260507010043 | 28 | 101 | 8.0 | 19.3 | 0.00 | 0.00 | 0.00 | 28 | 1010.3 |
| 20260507004544 | 28 | 96 | 11.3 | 17.7 | 0.00 | 0.00 | 0.00 | 27 | 1010.3 |
| 20260507003044 | 29 | 141 | 9.7 | 19.3 | 0.00 | 0.00 | 0.00 | 27 | 1010.2 |
| 20260507001540 | 29 | 78 | 12.9 | 20.9 | 0.00 | 0.00 | 0.00 | 26 | 1010.2 |
| 20260507000038 | 29 | 96 | 11.3 | 20.9 | 0.00 | 0.00 | 0.00 | 24 | 1010.0 |
| 20260506234548 | 29 | 92 | 11.3 | 22.5 | 0.00 | 0.00 | 0.00 | 26 | 1010.1 |
| 20260506233036 | 29 | 76 | 11.3 | 22.5 | 0.00 | 0.00 | 0.00 | 26 | 1010.1 |
| 20260506231541 | 29 | 104 | 11.3 | 22.5 | 0.00 | 0.00 | 0.00 | 26 | 1010.2 |
| 20260506230043 | 29 | 99 | 12.9 | 20.9 | 0.00 | 0.00 | 0.00 | 26 | 1010.4 |
| 20260506224537 | 29 | 120 | 9.7 | 22.5 | 0.00 | 0.00 | 0.00 | 27 | 1010.7 |
| 20260506223036 | 29 | 110 | 12.9 | 24.1 | 0.00 | 0.00 | 0.00 | 28 | 1010.9 |
| 20260506221541 | 29 | 121 | 12.9 | 20.9 | 0.00 | 0.00 | 0.00 | 27 | 1010.9 |
| 20260506220045 | 29 | 112 | 12.9 | 19.3 | 0.00 | 0.00 | 0.00 | 27 | 1011.3 |
| 20260506214543 | 29 | 103 | 11.3 | 20.9 | 0.00 | 0.00 | 0.00 | 27 | 1011.5 |
| 20260506213036 | 28 | 111 | 11.3 | 20.9 | 0.00 | 0.00 | 0.00 | 27 | 1011.7 |
| 20260506211536 | 28 | 101 | 11.3 | 17.7 | 0.00 | 0.00 | 0.00 | 27 | 1011.8 |
| 20260506210045 | 28 | 127 | 8.0 | 16.1 | 0.00 | 0.00 | 0.00 | 30 | 1012.1 |
| 20260506204552 | 28 | 127 | 9.7 | 20.9 | 0.00 | 0.00 | 0.00 | 29 | 1012.4 |
| 20260506203040 | 28 | 138 | 9.7 | 17.7 | 0.00 | 0.00 | 0.00 | 29 | 1012.6 |
| 20260506201546 | 28 | 91 | 9.7 | 19.3 | 0.00 | 0.00 | 0.00 | 28 | 1012.9 |
| 20260506200036 | 28 | 100 | 6.4 | 17.7 | 0.00 | 0.00 | 0.00 | 29 | 1013.1 |
| 20260506194549 | 28 | 124 | 8.0 | 16.1 | 0.00 | 0.00 | 0.00 | 31 | 1013.4 |
| 20260506193041 | 27 | 106 | 6.4 | 16.1 | 0.00 | 0.00 | 0.00 | 30 | 1013.5 |
| 20260506191540 | 28 | 154 | 4.8 | 17.7 | 0.00 | 0.00 | 0.00 | 35 | 1013.7 |
| 20260506190038 | 27 | 126 | 3.2 | 12.9 | 0.00 | 0.00 | 0.00 | 32 | 1013.9 |
| 20260506184541 | 27 | 170 | 4.8 | 12.9 | 0.00 | 0.00 | 0.00 | 34 | 1013.9 |
| 20260506183059 | 27 | 74 | 6.4 | 11.3 | 0.00 | 0.00 | 0.00 | 35 | 1014.1 |
| 20260506181552 | 26 | 84 | 1.6 | 6.4 | 0.00 | 0.00 | 0.00 | 31 | 1014.3 |
| 20260506180041 | 26 | 51 | 6.4 | 12.9 | 0.00 | 0.00 | 0.00 | 31 | 1014.4 |
| 20260506174536 | 26 | 159 | 4.8 | 11.3 | 0.00 | 0.00 | 0.00 | 35 | 1014.3 |
| 20260506173037 | 25 | 29 | 4.8 | 12.9 | 0.00 | 0.00 | 0.00 | 34 | 1014.4 |
| 20260506171547 | 25 | 104 | 3.2 | 14.5 | 0.00 | 0.00 | 0.00 | 37 | 1014.3 |
| 20260506170047 | 24 | 171 | 1.6 | 6.4 | 0.00 | 0.00 | 0.00 | 37 | 1014.5 |
| 20260506164546 | 23 | 203 | 3.2 | 9.7 | 0.00 | 0.00 | 0.00 | 38 | 1014.6 |
| 20260506163046 | 23 | 240 | 3.2 | 11.3 | 0.00 | 0.00 | 0.00 | 40 | 1014.8 |
| 20260506161551 | 22 | 291 | 3.2 | 9.7 | 0.00 | 0.00 | 0.00 | 42 | 1014.7 |
| 20260506160047 | 21 | 251 | 0.0 | 6.4 | 0.00 | 0.00 | 0.00 | 45 | 1014.6 |
| 20260506154545 | 21 | 249 | 3.2 | 9.7 | 0.00 | 0.00 | 0.00 | 47 | 1014.6 |
| 20260506153039 | 20 | 257 | 4.8 | 9.7 | 0.00 | 0.00 | 0.00 | 48 | 1014.6 |
| 20260506151600 | 19 | 327 | 4.8 | 9.7 | 0.00 | 0.00 | 0.00 | 50 | 1014.6 |
| 20260506150045 | 18 | 323 | 6.4 | 12.9 | 0.00 | 0.00 | 0.00 | 52 | 1014.5 |
| 20260506144544 | 18 | 298 | 6.4 | 11.3 | 0.00 | 0.00 | 0.00 | 55 | 1014.6 |
| 20260506143048 | 17 | 294 | 4.8 | 11.3 | 0.00 | 0.00 | 0.00 | 58 | 1014.5 |
| 20260506141536 | 16 | 311 | 4.8 | 11.3 | 0.00 | 0.00 | 0.00 | 64 | 1014.3 |
| 20260506140056 | 15 | 286 | 3.2 | 6.4 | 0.00 | 0.00 | 0.00 | 69 | 1014.2 |
| 20260506134545 | 13 | 295 | 3.2 | 4.8 | 0.00 | 0.00 | 0.00 | 71 | 1014.0 |
| 20260506133047 | 12 | 277 | 1.6 | 4.8 | 0.00 | 0.00 | 0.00 | 70 | 1013.7 |
| 20260506131539 | 12 | 275 | 1.6 | 4.8 | 0.00 | 0.00 | 0.00 | 69 | 1013.6 |
| 20260506130039 | 12 | 283 | 3.2 | 4.8 | 0.00 | 0.00 | 0.00 | 69 | 1013.3 |
| 20260506124537 | 12 | 267 | 3.2 | 4.8 | 0.00 | 0.00 | 0.00 | 68 | 1013.1 |
| 20260506123036 | 12 | 248 | 1.6 | 3.2 | 0.00 | 0.00 | 0.00 | 68 | 1012.9 |
| 20260506121543 | 12 | 278 | 1.6 | 3.2 | 0.00 | 0.00 | 0.00 | 67 | 1012.8 |
| 20260506120043 | 12 | 278 | 1.6 | 4.8 | 0.00 | 0.00 | 0.00 | 67 | 1012.8 |
| 20260506114542 | 12 | 260 | 1.6 | 4.8 | 0.00 | 0.00 | 0.00 | 66 | 1012.8 |
| 20260506113045 | 13 | 276 | 3.2 | 4.8 | 0.00 | 0.00 | 0.00 | 66 | 1012.7 |
| 20260506111542 | 12 | 266 | 3.2 | 4.8 | 0.00 | 0.00 | 0.00 | 65 | 1012.5 |
| 20260506110050 | 13 | 273 | 3.2 | 4.8 | 0.00 | 0.00 | 0.00 | 64 | 1012.5 |
| 20260506104537 | 13 | 271 | 3.2 | 4.8 | 0.00 | 0.00 | 0.00 | 62 | 1012.6 |
| 20260506103041 | 14 | 269 | 1.6 | 4.8 | 0.00 | 0.00 | 0.00 | 60 | 1012.5 |
| 20260506101552 | 15 | 270 | 3.2 | 6.4 | 0.00 | 0.00 | 0.00 | 58 | 1012.4 |
| 20260506100046 | 15 | 296 | 4.8 | 14.5 | 0.00 | 0.00 | 0.00 | 57 | 1012.5 |
| 20260506094547 | 15 | 306 | 8.0 | 14.5 | 0.00 | 0.00 | 0.00 | 58 | 1012.4 |
| 20260506093036 | 15 | 286 | 4.8 | 12.9 | 0.00 | 0.00 | 0.00 | 58 | 1012.4 |
| 20260506091536 | 15 | 292 | 6.4 | 12.9 | 0.00 | 0.00 | 0.00 | 58 | 1012.5 |
| 20260506090037 | 15 | 295 | 6.4 | 11.3 | 0.00 | 0.00 | 0.00 | 59 | 1012.4 |
| 20260506084539 | 15 | 310 | 4.8 | 9.7 | 0.00 | 0.00 | 0.00 | 59 | 1012.5 |
| 20260506083041 | 15 | 284 | 3.2 | 4.8 | 0.00 | 0.00 | 0.00 | 59 | 1012.7 |
| 20260506081536 | 15 | 281 | 3.2 | 6.4 | 0.00 | 0.00 | 0.00 | 57 | 1012.7 |